Time,TemperatureF,DewpointF,PressureIn,WindDirection,WindDirectionDegrees,WindSpeedMPH,WindSpeedGustMPH,Humidity,HourlyPrecipIn,Conditions,Clouds,dailyrainin,SolarRadiationWatts/m^2,SoftwareType,DateUTC
2015-08-05 00:02:00,63.0,46.9,28.75,SSW,209,19.0,23.0,56,0.00,,,0.00,0.0,meteohub,2015-08-05 07:02:00,
2015-08-05 00:07:00,63.0,46.6,28.75,SW,214,8.0,23.0,55,0.00,,,0.00,0.0,meteohub,2015-08-05 07:07:00,
2015-08-05 00:12:00,62.8,46.4,28.75,SSW,202,18.0,27.0,55,0.00,,,0.00,0.0,meteohub,2015-08-05 07:12:00,
2015-08-05 00:17:00,62.6,46.2,28.75,SSW,211,14.0,28.0,55,0.00,,,0.00,0.0,meteohub,2015-08-05 07:17:00,
2015-08-05 00:22:00,62.4,45.5,28.75,SSW,204,21.0,28.0,54,0.00,,,0.00,0.0,meteohub,2015-08-05 07:22:00,
2015-08-05 00:27:00,62.2,45.9,28.76,SSW,202,16.0,28.0,55,0.00,,,0.00,0.0,meteohub,2015-08-05 07:27:00,
2015-08-05 00:32:00,61.9,45.1,28.76,SSW,202,22.0,27.0,54,0.00,,,0.00,0.0,meteohub,2015-08-05 07:32:00,
2015-08-05 00:37:00,62.1,45.7,28.76,SSW,203,17.0,32.0,55,0.00,,,0.00,0.0,meteohub,2015-08-05 07:37:00,
2015-08-05 00:42:00,61.7,45.3,28.76,SSW,196,25.0,32.0,55,0.00,,,0.00,0.0,meteohub,2015-08-05 07:42:00,
2015-08-05 00:47:00,61.5,45.1,28.76,SSW,200,12.0,26.0,55,0.00,,,0.00,0.0,meteohub,2015-08-05 07:47:00,
2015-08-05 00:52:00,61.3,45.0,28.76,SSW,193,15.0,26.0,55,0.00,,,0.00,0.0,meteohub,2015-08-05 07:52:00,
2015-08-05 00:57:00,61.2,45.3,28.76,SSE,166,16.0,26.0,56,0.00,,,0.00,0.0,meteohub,2015-08-05 07:57:00,
2015-08-05 01:02:00,61.2,45.9,28.77,SE,136,7.0,24.0,57,0.00,,,0.00,0.0,meteohub,2015-08-05 08:02:00,
2015-08-05 01:07:00,60.8,45.0,28.77,SSW,196,11.0,24.0,56,0.00,,,0.00,0.0,meteohub,2015-08-05 08:07:00,
2015-08-05 01:12:00,61.0,45.1,28.77,SW,223,21.0,24.0,56,0.00,,,0.00,0.0,meteohub,2015-08-05 08:12:00,
2015-08-05 01:17:00,60.6,44.8,28.77,SW,215,13.0,24.0,56,0.00,,,0.00,0.0,meteohub,2015-08-05 08:17:00,
2015-08-05 01:22:00,60.4,45.1,28.77,SW,235,18.0,24.0,57,0.00,,,0.00,0.0,meteohub,2015-08-05 08:22:00,
2015-08-05 01:27:00,60.6,45.3,28.77,SSW,203,16.0,24.0,57,0.00,,,0.00,0.0,meteohub,2015-08-05 08:27:00,
2015-08-05 01:32:00,60.4,45.1,28.77,SSW,207,14.0,23.0,57,0.00,,,0.00,0.0,meteohub,2015-08-05 08:32:00,
2015-08-05 01:37:00,60.4,45.1,28.77,SSW,203,22.0,23.0,57,0.00,,,0.00,0.0,meteohub,2015-08-05 08:37:00,
2015-08-05 01:42:00,60.3,45.5,28.77,SSW,205,17.0,27.0,58,0.00,,,0.00,0.0,meteohub,2015-08-05 08:42:00,
2015-08-05 01:47:00,60.1,45.3,28.77,SSW,205,13.0,27.0,58,0.00,,,0.00,0.0,meteohub,2015-08-05 08:47:00,
2015-08-05 01:52:00,60.1,45.7,28.77,SSW,201,17.0,24.0,59,0.00,,,0.00,0.0,meteohub,2015-08-05 08:52:00,
2015-08-05 01:57:00,60.1,45.3,28.77,SSW,206,20.0,21.0,58,0.00,,,0.00,0.0,meteohub,2015-08-05 08:57:00,
2015-08-05 02:02:00,59.7,45.0,28.77,SSW,211,21.0,23.0,58,0.00,,,0.00,0.0,meteohub,2015-08-05 09:02:00,
2015-08-05 02:07:00,59.7,45.3,28.77,South,186,16.0,24.0,59,0.00,,,0.00,0.0,meteohub,2015-08-05 09:07:00,
2015-08-05 02:12:00,59.4,45.0,28.77,SSW,193,19.0,26.0,59,0.00,,,0.00,0.0,meteohub,2015-08-05 09:12:00,
2015-08-05 02:17:00,59.2,45.3,28.77,SW,222,22.0,27.0,60,0.00,,,0.00,0.0,meteohub,2015-08-05 09:17:00,
2015-08-05 02:22:00,59.4,45.0,28.77,SW,216,25.0,28.0,59,0.00,,,0.00,0.0,meteohub,2015-08-05 09:22:00,
2015-08-05 02:27:00,59.2,45.3,28.77,SSW,205,23.0,29.0,60,0.00,,,0.00,0.0,meteohub,2015-08-05 09:27:00,
2015-08-05 02:32:00,59.2,44.8,28.78,SSW,211,25.0,29.0,59,0.00,,,0.00,0.0,meteohub,2015-08-05 09:32:00,
2015-08-05 02:37:00,59.0,45.1,28.78,SW,216,18.0,29.0,60,0.00,,,0.00,0.0,meteohub,2015-08-05 09:37:00,
2015-08-05 02:42:00,59.0,45.1,28.78,SSW,212,20.0,29.0,60,0.00,,,0.00,0.0,meteohub,2015-08-05 09:42:00,
2015-08-05 02:47:00,58.8,45.9,28.78,West,267,19.0,28.0,62,0.00,,,0.00,0.0,meteohub,2015-08-05 09:47:00,